159P/LONEOS (2018)

Japanese version
Home page
Updated on February 21, 2021

---------------------------------------------------------------------

* Profile

* Pictures

* Orbital Elements

Epoch 2018 June 11.0 TT = JDT 2458280.5                                         
T 2018 May 22.80096 TT                                  Rudenko                 
q   3.6252072            (2000.0)            P               Q                  
n   0.06943706     Peri.    4.76237     +0.50884657     -0.79664310             
a   5.8623960      Node    55.02424     +0.77608966     +0.26053413             
e   0.3816168      Incl.   23.46271     +0.37250503     +0.54541887             
P  14.2                                                                         
From 806 observations 1989 Dec. 17-2020 May 6, mean residual 0".5.              

* Magnitudes Graph

        m1 = 3.5 + 5 log d + 20 log r(t - 300)

---------------------------------------------------------------------

The orbital elements are published on M.P.E.C. 2020-L06.
The magnitudes graphs are made with Comet for Windows.

---------------------------------------------------------------------

Copyright(C) Seiichi Yoshida (comet@aerith.net). All rights reserved.